Simultaneous Nadir Overpasses (SNOs) Predictions

Prediction of SNOs between LANDSAT-8 and TERRA Satellite Orbit:

Table of predicted SNOs for the next 14.0 days since TLE Epoch: 3/26/2025
Index Date (LANDSAT-8) Time (LANDSAT-8) Lat,Lon (LANDSAT-8) SZA (LANDSAT-8 ) Date (TERRA) Time (TERRA) Lat,Lon (TERRA) SZA (TERRA ) Distance(km) Time Diff (sec)
1 04/08/2025 22:44:20 -81.85, 82.71 101.18 04/08/2025 22:45:30 -81.85, 82.79 101.13 1.32 70
2 04/08/2025 23:33:46 81.85,-109.60 78.82 04/08/2025 23:34:50 81.85,-109.52 78.87 1.33 64
3 04/09/2025 00:23:13 -81.85, 57.93 101.21 04/09/2025 00:24:09 -81.85, 58.07 101.16 2.19 56
4 04/09/2025 01:12:39 81.85,-134.38 78.79 04/09/2025 01:13:29 81.85,-134.24 78.84 2.18 50
5 04/09/2025 02:02:06 -81.85, 33.15 101.24 04/09/2025 02:02:48 -81.85, 33.35 101.19 3.07 42
6 04/09/2025 02:51:32 81.85,-159.16 78.76 04/09/2025 02:52:08 81.85,-158.97 78.80 3.05 36



Historial Predications of SNOs between LANDSAT-8 and TERRA
